Wind_Speed
8 8 9 9 9 9 9 9 8 9 9 9 10 10 11 11 11 11 11 11 11 11 12 12 13 13 14 14 13 13 14 14 15 15 16 16 17 17 18 18 19 20 21
8 8 9 9 9 10 10 9 9 9 10 10 10 11 12 12 12 12 12 11 12 12 12 13 13 13 14 14 14 15 15 16 16 16 17 17 18 18 18 19 20 21 22
8 9 9 10 10 10 10 10 10 10 10 10 11 12 13 12 12 13 12 12 13 13 13 13 14 14 14 15 15 16 16 17 17 17 17 18 18 19 19 20 20 22 23
9 9 10 10 11 11 11 11 11 11 12 12 12 13 13 13 13 13 13 13 14 14 14 14 14 14 14 15 15 16 16 17 17 17 17 18 18 19 19 21 21 23 24
10 11 11 11 11 11 12 12 12 12 12 13 13 14 14 14 14 13 14 14 14 14 15 15 14 14 14 14 15 15 16 16 17 17 17 18 19 19 20 22 22 23 24
11 12 12 11 11 12 13 13 13 13 13 14 14 14 15 15 15 14 14 14 14 14 15 15 14 15 15 15 15 16 16 17 17 17 18 18 19 20 21 22 23 24 24
13 13 13 12 12 13 13 14 14 14 14 14 15 15 16 16 16 16 15 15 14 14 15 15 15 15 15 15 15 16 16 17 17 17 18 19 20 21 22 23 24 24 25
13 13 13 13 14 14 15 14 14 15 15 15 15 16 16 16 17 17 16 16 16 15 15 16 16 15 16 16 16 16 17 17 18 18 19 20 21 22 23 24 25 26 26
14 14 14 15 15 15 15 16 16 16 17 16 16 16 16 17 17 17 17 17 17 16 16 16 16 16 16 17 17 18 18 19 19 20 21 22 23 24 25 25 26 27 27
15 15 15 16 16 16 16 17 17 18 18 17 17 17 17 17 18 18 17 17 17 17 17 17 17 17 18 18 19 19 19 20 21 22 22 23 24 25 25 26 27 27 28
17 17 17 17 17 18 18 18 19 19 19 18 18 18 18 18 18 19 19 18 18 18 18 19 18 19 20 20 20 21 21 22 23 23 23 24 25 26 27 27 28 28 29
19 19 19 19 19 19 19 20 20 21 20 20 19 19 20 20 20 20 20 20 20 20 20 20 21 21 22 22 23 23 23 23 24 24 25 26 26 27 28 28 29 30 30
22 22 22 21 22 22 22 22 22 23 22 22 22 21 21 21 21 21 21 21 21 21 21 22 22 23 23 24 24 24 25 25 26 26 26 27 28 28 29 30 30 31 31
24 24 24 24 24 24 24 24 25 25 25 25 25 24 23 22 22 22 22 22 22 22 22 23 23 23 24 24 24 25 26 27 27 27 28 28 29 30 30 31 32 33 33
26 26 26 25 26 26 26 26 26 26 25 26 25 25 24 24 23 24 24 24 24 24 24 24 24 25 25 26 26 27 27 28 28 28 29 30 30 31 32 32 33 34 34
28 28 27 27 27 27 27 27 27 26 26 26 26 26 25 24 24 25 26 26 26 26 26 26 26 26 27 27 28 28 29 29 29 30 31 32 32 33 33 34 35 35 36
29 29 28 29 28 28 28 27 27 26 26 26 26 25 25 25 26 26 27 27 27 28 28 28 28 28 28 28 29 30 30 30 31 32 32 33 33 34 34 35 36 37 37
30 30 29 29 29 29 28 27 27 27 27 27 27 26 26 26 26 27 28 29 29 29 29 29 29 30 30 30 31 32 32 32 32 33 33 34 34 35 36 37 37 37 37
32 32 31 30 30 29 29 28 28 28 28 28 28 28 27 28 28 29 29 29 30 31 31 31 31 31 32 32 32 33 33 33 34 34 34 35 35 35 36 37 37 37 37
31 31 30 30 30 30 29 29 29 29 29 29 30 30 30 29 29 30 30 30 31 32 32 32 32 33 33 33 33 34 34 34 35 35 35 35 35 36 37 37 37 37 37
31 30 30 30 30 30 30 30 30 30 31 31 31 32 32 31 31 31 32 32 32 32 32 33 34 34 34 35 35 35 35 34 34 35 35 35 35 36 36 36 36 35 35
32 32 32 32 32 31 31 31 32 32 32 33 33 33 33 33 33 33 33 34 34 34 34 34 34 35 35 35 35 35 35 35 35 34 34 34 35 35 35 35 35 35 36
34 33 32 31 31 31 31 32 33 33 33 33 33 33 33 34 34 34 34 34 34 34 34 35 35 35 35 36 36 35 34 34 34 34 34 34 35 35 35 35 35 36 36
33 33 32 32 31 31 31 32 33 33 33 33 33 34 34 34 33 33 34 34 35 35 35 34 34 35 35 35 35 34 33 34 34 34 34 35 35 35 35 35 35 35 35
32 32 32 31 31 31 32 32 32 32 33 33 33 33 34 33 33 34 34 35 35 35 35 35 35 34 34 34 34 34 33 34 34 34 34 34 34 35 35 35 35 35 35
31 31 31 31 31 31 31 30 30 31 31 31 32 32 33 33 33 34 34 35 35 35 35 35 35 35 34 34 34 34 33 33 33 34 34 34 34 35 35 35 35 35 35
Wind_Direction
350 348 347 346 342 340 336 334 330 327 325 325 326 324 321 322 320 319 318 314 311 308 307 307 305 303 303 304 300 305 304 303 305 305 306 307 308 307 306 305 305 305 302
340 340 345 352 349 345 342 339 334 329 325 322 321 322 319 319 320 318 317 317 314 308 306 307 306 303 301 301 302 304 303 304 305 305 305 305 306 306 307 308 308 307 306
333 332 337 345 347 345 343 337 334 330 326 323 321 320 321 321 319 320 319 317 315 311 309 310 309 306 304 302 302 302 303 304 305 305 305 306 306 307 308 309 309 308 307
329 331 333 335 336 337 336 333 330 327 323 322 320 319 320 321 320 317 316 317 315 312 311 312 311 309 308 305 303 303 304 304 305 305 306 307 309 308 308 308 308 307 307
325 326 327 327 327 330 331 331 329 328 324 323 322 320 321 320 318 317 315 313 313 311 310 311 312 313 312 311 310 309 307 306 306 306 307 307 308 308 308 309 309 308 307
319 318 320 320 321 323 326 327 327 324 322 320 319 320 323 322 319 314 312 313 312 313 312 310 312 315 315 314 312 311 311 311 310 309 308 309 310 310 310 311 311 309 307
311 314 314 312 314 317 320 321 321 320 319 319 318 318 318 318 318 316 313 313 312 313 315 313 312 313 317 317 316 314 314 313 313 312 311 311 311 311 312 312 312 311 311
307 309 310 309 312 313 315 315 317 318 316 316 315 315 315 316 316 314 314 314 311 310 310 313 313 312 315 316 316 315 315 315 315 315 314 314 315 316 315 314 314 313 312
303 305 305 306 307 310 312 313 313 315 314 312 311 312 313 314 313 312 311 310 308 307 307 309 310 309 310 311 313 313 313 312 312 312 312 313 313 314 313 314 315 315 314
299 301 302 304 305 306 307 309 310 312 312 311 310 311 311 311 312 311 310 309 308 307 306 307 307 306 306 307 309 310 309 310 310 310 310 311 313 313 314 314 314 314 314
294 297 299 300 302 303 304 305 306 307 308 307 308 309 309 308 309 310 309 308 307 306 305 305 304 304 304 305 306 307 308 308 308 308 308 310 312 313 314 314 313 314 313
289 292 294 296 298 301 302 301 302 303 302 302 302 303 304 305 305 306 306 306 305 304 303 302 302 302 301 302 304 305 306 307 308 308 309 310 312 313 313 313 312 313 313
285 288 291 293 295 297 298 299 298 299 298 299 297 298 300 302 303 305 305 304 302 301 301 301 301 302 302 302 304 304 305 306 307 307 309 310 311 311 312 313 312 312 312
283 285 287 289 291 292 294 295 297 297 297 297 294 294 296 298 300 301 303 301 300 299 299 300 301 302 301 301 302 303 304 304 306 307 308 309 309 310 310 312 313 313 312
281 283 285 286 288 290 291 292 293 293 296 297 295 294 294 294 296 298 300 301 301 301 300 300 300 300 300 300 300 302 303 304 305 306 307 308 308 309 309 311 311 312 312
279 279 281 285 287 288 289 290 290 293 294 297 297 294 292 292 294 296 297 298 299 301 301 300 299 299 299 300 300 301 302 304 305 306 306 306 307 308 309 309 310 311 311
279 279 280 283 285 286 288 289 289 290 292 296 296 293 293 291 294 295 296 296 297 298 299 300 299 300 299 299 300 300 301 302 302 304 305 305 306 306 307 308 308 309 310
275 277 279 281 283 284 285 286 288 290 291 294 296 295 295 294 295 296 295 295 296 296 297 298 298 298 298 299 299 299 300 301 301 302 304 305 305 306 307 308 309 309 310
273 275 276 278 280 282 284 284 286 288 289 291 294 293 293 295 295 296 296 295 295 296 296 297 297 298 298 298 299 299 299 300 300 301 302 303 304 306 307 308 309 309 310
271 273 274 276 279 281 282 283 284 286 287 289 291 292 292 292 293 294 295 296 296 296 297 298 298 299 299 299 299 298 298 299 299 300 301 302 303 305 306 307 309 309 310
268 271 273 275 277 279 280 280 282 284 286 288 290 290 291 291 291 291 293 294 295 295 295 296 297 298 298 299 299 299 299 299 300 300 300 301 303 305 306 307 308 309 310
267 270 273 275 276 277 278 280 282 284 285 287 289 288 289 290 290 290 292 293 294 294 294 295 296 297 298 299 299 299 299 300 300 299 300 301 303 305 306 307 307 307 308
267 269 272 274 274 275 277 280 281 283 284 286 288 289 290 290 291 292 292 293 293 293 293 294 296 297 298 298 299 299 299 300 300 299 300 301 303 304 305 305 306 307 308
268 268 269 272 274 274 277 279 280 282 284 286 288 290 290 290 291 292 293 293 293 293 293 294 296 297 297 297 298 298 298 300 301 301 300 301 302 304 305 306 306 306 307
266 267 269 271 273 276 278 279 280 282 284 285 286 289 290 290 292 293 293 294 294 293 293 294 295 296 297 297 297 298 298 300 301 302 302 302 303 304 305 305 305 306 306
267 269 271 272 274 277 279 280 283 285 286 286 287 288 290 291 292 293 294 294 294 294 294 294 295 296 296 298 298 299 299 300 301 302 303 303 303 304 304 305 305 305 306
Height
5910 5909 5908 5906 5904 5903 5901 5900 5898 5897 5896 5895 5893 5892 5890 5889 5887 5886 5884 5882 5881 5879 5878 5877 5875 5873 5871 5869 5867 5866 5865 5864 5862 5860 5858 5856 5854 5852 5850 5848 5845 5843 5841
5910 5909 5907 5905 5903 5901 5900 5898 5897 5896 5894 5893 5892 5890 5889 5887 5886 5884 5882 5880 5878 5877 5875 5874 5872 5870 5868 5866 5864 5863 5862 5860 5858 5857 5854 5852 5850 5848 5846 5843 5841 5838 5836
5909 5908 5906 5904 5902 5901 5899 5897 5896 5894 5893 5891 5890 5888 5887 5885 5883 5881 5880 5877 5876 5874 5872 5870 5868 5867 5865 5863 5861 5860 5858 5856 5855 5853 5851 5849 5846 5844 5841 5839 5836 5833 5830
5908 5906 5905 5903 5901 5900 5898 5896 5894 5893 5891 5889 5888 5886 5884 5883 5881 5879 5877 5875 5873 5871 5869 5867 5865 5863 5861 5859 5858 5856 5854 5852 5850 5849 5847 5844 5842 5839 5837 5834 5831 5828 5825
5906 5905 5903 5902 5900 5898 5896 5894 5892 5890 5889 5887 5886 5884 5882 5880 5878 5876 5874 5872 5870 5868 5867 5865 5862 5860 5858 5856 5855 5853 5851 5849 5846 5844 5842 5840 5838 5835 5832 5829 5826 5823 5820
5905 5903 5901 5900 5898 5896 5894 5892 5890 5889 5887 5885 5883 5881 5879 5877 5875 5873 5871 5869 5867 5865 5863 5861 5859 5857 5855 5853 5851 5849 5847 5845 5843 5840 5838 5836 5833 5830 5827 5824 5821 5817 5814
5902 5901 5899 5897 5896 5894 5892 5890 5888 5886 5884 5882 5880 5879 5877 5874 5872 5870 5868 5866 5864 5862 5860 5858 5856 5854 5852 5850 5848 5845 5843 5841 5839 5837 5834 5831 5828 5826 5823 5819 5815 5812 5808
5899 5898 5896 5895 5893 5891 5890 5888 5886 5884 5882 5880 5878 5876 5874 5872 5870 5868 5866 5864 5861 5859 5857 5855 5853 5851 5849 5847 5844 5842 5840 5837 5835 5832 5830 5827 5824 5821 5817 5814 5810 5806 5802
5896 5895 5893 5892 5890 5888 5887 5885 5883 5881 5879 5876 5874 5872 5870 5869 5866 5865 5863 5860 5858 5856 5854 5852 5850 5847 5845 5843 5841 5838 5836 5833 5830 5828 5825 5822 5819 5815 5812 5808 5804 5800 5796
5893 5891 5890 5888 5887 5885 5883 5881 5879 5877 5875 5873 5871 5869 5867 5865 5863 5861 5859 5856 5854 5852 5850 5848 5846 5843 5841 5839 5836 5834 5831 5828 5826 5823 5820 5817 5813 5810 5806 5803 5799 5794 5790
5889 5888 5886 5884 5883 5881 5879 5877 5875 5873 5871 5869 5867 5865 5863 5861 5859 5857 5854 5852 5850 5848 5845 5843 5841 5839 5836 5834 5831 5829 5826 5823 5820 5817 5814 5811 5808 5804 5800 5796 5792 5788 5784
5885 5883 5882 5880 5879 5877 5875 5873 5871 5869 5867 5865 5863 5861 5859 5856 5854 5852 5850 5847 5845 5843 5841 5838 5836 5834 5831 5829 5826 5823 5820 5817 5814 5811 5808 5805 5801 5798 5794 5790 5786 5781 5777
5879 5878 5876 5875 5873 5872 5870 5868 5866 5863 5861 5859 5858 5856 5854 5851 5849 5847 5844 5842 5839 5837 5835 5833 5830 5828 5826 5823 5820 5817 5814 5811 5808 5805 5801 5798 5795 5791 5787 5783 5779 5774 5770
5873 5872 5871 5869 5868 5866 5864 5862 5860 5858 5856 5853 5851 5850 5848 5846 5844 5841 5839 5836 5834 5831 5829 5827 5824 5822 5819 5817 5814 5811 5808 5805 5801 5798 5794 5791 5787 5784 5780 5776 5771 5766 5762
5866 5865 5864 5863 5861 5860 5858 5856 5854 5852 5850 5847 5845 5843 5841 5840 5838 5835 5833 5830 5828 5825 5823 5820 5818 5815 5813 5810 5807 5804 5801 5798 5794 5791 5787 5783 5780 5776 5772 5767 5763 5758 5753
5859 5858 5857 5856 5855 5853 5851 5849 5847 5845 5843 5841 5839 5836 5834 5833 5831 5829 5826 5824 5822 5819 5816 5814 5811 5808 5805 5802 5800 5797 5793 5790 5787 5783 5780 5776 5772 5767 5763 5759 5754 5750 5745
5852 5851 5850 5849 5847 5846 5844 5842 5840 5838 5836 5834 5832 5829 5827 5825 5823 5821 5819 5817 5814 5812 5809 5806 5804 5801 5798 5795 5792 5789 5786 5782 5779 5775 5771 5767 5763 5759 5754 5750 5746 5741 5736
5844 5843 5842 5841 5839 5838 5836 5835 5833 5831 5829 5827 5825 5823 5820 5818 5816 5814 5811 5809 5807 5804 5801 5799 5796 5793 5790 5786 5783 5780 5777 5773 5770 5766 5762 5758 5754 5750 5745 5741 5736 5732 5727
5835 5834 5833 5832 5831 5830 5829 5827 5825 5823 5821 5820 5818 5815 5813 5810 5808 5806 5803 5801 5798 5796 5793 5790 5787 5784 5781 5778 5775 5771 5768 5764 5761 5757 5753 5749 5745 5741 5736 5732 5727 5722 5717
5825 5825 5824 5824 5822 5821 5820 5819 5817 5815 5813 5811 5809 5807 5804 5802 5799 5797 5795 5792 5790 5787 5784 5782 5779 5775 5772 5769 5765 5762 5758 5755 5751 5747 5743 5739 5735 5731 5727 5722 5717 5713 5708
5816 5816 5815 5814 5814 5813 5811 5810 5809 5807 5805 5803 5801 5798 5796 5793 5791 5788 5786 5783 5781 5778 5775 5772 5769 5766 5763 5759 5756 5752 5749 5745 5741 5737 5733 5729 5725 5721 5717 5713 5708 5704 5699
5807 5807 5806 5805 5805 5804 5802 5801 5800 5798 5795 5793 5791 5789 5786 5784 5782 5779 5777 5774 5772 5769 5766 5763 5759 5756 5753 5750 5746 5742 5739 5735 5731 5727 5723 5720 5716 5712 5708 5703 5699 5694 5690
5797 5797 5796 5795 5795 5794 5793 5792 5790 5788 5786 5784 5781 5779 5776 5774 5772 5770 5767 5765 5762 5759 5756 5753 5750 5746 5743 5740 5736 5732 5729 5725 5721 5717 5714 5710 5706 5702 5698 5694 5689 5685 5680
5787 5786 5786 5786 5785 5784 5783 5782 5780 5778 5776 5774 5771 5769 5767 5765 5762 5760 5757 5755 5752 5749 5746 5743 5740 5736 5733 5730 5726 5722 5719 5715 5712 5708 5704 5700 5696 5692 5688 5684 5680 5675 5671
5777 5776 5776 5776 5775 5775 5774 5772 5770 5769 5767 5764 5762 5759 5757 5755 5752 5750 5747 5744 5742 5739 5736 5733 5730 5727 5723 5720 5716 5713 5709 5706 5702 5698 5694 5690 5687 5683 5679 5675 5670 5666 5662
5767 5767 5767 5767 5766 5765 5764 5763 5761 5759 5757 5754 5752 5750 5748 5745 5743 5740 5737 5734 5732 5729 5726 5723 5720 5716 5713 5710 5707 5703 5700 5696 5693 5689 5685 5681 5677 5673 5669 5665 5661 5656 5652